Temp
-5 -5 -5 -6 -5 -5 -5 -5 -5 -5 -5 -4 -4 -5 -5 -5 -5 -5 -6 -6 -6 -7 -7 -8 -8 -8 -8 -8 -8 -8 -9 -9 -9 -9 -9 -8 -8 -8 -7 -7 -7 -6 -6
-6 -5 -5 -5 -5 -5 -5 -5 -5 -5 -5 -5 -4 -4 -5 -5 -5 -6 -6 -6 -7 -7 -7 -8 -8 -8 -8 -8 -8 -9 -9 -9 -8 -8 -8 -8 -7 -7 -7 -7 -7 -7 -7
-6 -6 -6 -6 -6 -6 -6 -5 -5 -5 -5 -5 -5 -5 -4 -5 -5 -5 -5 -6 -7 -7 -7 -8 -8 -8 -8 -9 -8 -8 -8 -8 -8 -7 -8 -7 -7 -7 -7 -7 -7 -7 -7
-7 -7 -6 -6 -6 -6 -6 -6 -6 -6 -5 -5 -5 -5 -5 -5 -6 -6 -6 -6 -6 -6 -7 -7 -8 -8 -8 -8 -7 -8 -8 -7 -7 -7 -7 -7 -7 -7 -6 -6 -6 -6 -6
-7 -7 -7 -7 -6 -6 -6 -6 -6 -6 -6 -6 -6 -6 -6 -5 -6 -6 -6 -6 -6 -6 -6 -6 -7 -7 -7 -7 -7 -7 -7 -7 -7 -7 -7 -6 -7 -6 -6 -6 -6 -6 -6
-7 -7 -7 -7 -7 -7 -7 -6 -6 -6 -6 -6 -6 -6 -6 -6 -6 -6 -6 -6 -6 -6 -6 -7 -7 -7 -7 -7 -7 -7 -7 -7 -7 -7 -6 -6 -6 -6 -6 -6 -6 -6 -6
-8 -8 -7 -8 -7 -7 -7 -7 -7 -7 -7 -7 -7 -7 -7 -7 -7 -7 -7 -7 -6 -6 -6 -6 -6 -7 -7 -7 -7 -7 -7 -7 -6 -6 -6 -6 -6 -6 -6 -5 -6 -6 -6
-7 -8 -8 -7 -7 -8 -7 -7 -7 -7 -7 -6 -6 -7 -7 -7 -7 -7 -7 -7 -6 -6 -6 -7 -7 -7 -7 -7 -7 -7 -7 -7 -6 -6 -6 -6 -7 -6 -6 -6 -6 -7 -7
-8 -8 -8 -7 -8 -8 -7 -8 -7 -8 -8 -7 -7 -7 -6 -7 -7 -7 -7 -6 -6 -6 -7 -7 -7 -7 -7 -8 -7 -6 -6 -6 -7 -7 -6 -7 -6 -6 -6 -6 -7 -7 -7
-8 -7 -6 -7 -8 -8 -8 -8 -7 -6 -8 -8 -7 -7 -6 -7 -7 -7 -7 -6 -6 -6 -7 -6 -6 -7 -7 -7 -7 -6 -6 -7 -7 -7 -7 -7 -7 -7 -7 -8 -7 -7 -7
-8 -8 -7 -6 -6 -8 -8 -8 -8 -7 -7 -9 -8 -8 -7 -7 -8 -8 -7 -7 -7 -7 -7 -7 -7 -7 -7 -7 -7 -7 -7 -7 -7 -7 -7 -7 -7 -7 -8 -7 -8 -8 -8
-9 -8 -8 -8 -8 -6 -7 -7 -8 -9 -9 -8 -8 -7 -7 -8 -8 -8 -8 -7 -7 -7 -7 -7 -7 -7 -7 -8 -8 -8 -8 -7 -6 -7 -7 -7 -8 -8 -8 -7 -8 -8 -7
-9 -9 -9 -9 -9 -8 -8 -9 -8 -8 -9 -8 -8 -8 -8 -9 -9 -8 -9 -8 -8 -8 -8 -8 -8 -8 -8 -8 -8 -8 -8 -7 -7 -8 -8 -8 -8 -8 -7 -7 -7 -7 -7
-9 -10 -9 -9 -9 -9 -9 -8 -9 -9 -9 -9 -8 -8 -8 -8 -8 -8 -9 -8 -8 -8 -8 -8 -8 -8 -8 -8 -8 -8 -8 -8 -8 -8 -8 -8 -8 -8 -8 -7 -7 -7 -7
-10 -10 -10 -9 -9 -9 -9 -9 -9 -8 -8 -8 -9 -9 -8 -8 -8 -8 -8 -8 -8 -8 -8 -8 -8 -8 -8 -9 -9 -8 -8 -9 -8 -8 -8 -8 -8 -8 -7 -7 -7 -7 -7
-10 -10 -11 -10 -9 -10 -9 -9 -10 -10 -9 -9 -9 -9 -9 -9 -8 -8 -8 -8 -8 -8 -8 -8 -8 -8 -8 -8 -9 -9 -8 -8 -8 -9 -8 -8 -8 -8 -8 -8 -7 -7 -7
-11 -11 -10 -11 -10 -10 -10 -10 -10 -9 -10 -10 -9 -9 -9 -9 -9 -9 -9 -9 -8 -8 -8 -8 -8 -8 -8 -8 -8 -9 -8 -8 -8 -8 -8 -8 -8 -8 -8 -7 -7 -7 -7
-11 -11 -10 -10 -10 -10 -11 -10 -10 -10 -10 -10 -10 -10 -9 -10 -9 -9 -9 -9 -9 -9 -8 -8 -8 -7 -7 -8 -8 -8 -8 -8 -8 -8 -8 -8 -8 -8 -8 -8 -8 -8 -7
-12 -12 -11 -11 -11 -11 -10 -11 -10 -10 -10 -10 -10 -10 -10 -9 -9 -9 -9 -9 -9 -9 -8 -8 -8 -8 -7 -8 -8 -8 -8 -8 -9 -8 -8 -8 -8 -8 -8 -8 -7 -8 -7
-12 -12 -12 -12 -11 -11 -12 -12 -11 -11 -10 -10 -11 -10 -10 -9 -9 -9 -9 -9 -8 -8 -8 -8 -8 -7 -8 -7 -7 -7 -7 -8 -9 -9 -9 -8 -8 -8 -8 -8 -7 -7 -7
-13 -13 -12 -12 -13 -13 -12 -12 -12 -12 -11 -12 -11 -11 -11 -10 -10 -10 -10 -10 -9 -8 -8 -8 -8 -8 -8 -7 -7 -7 -8 -8 -8 -8 -8 -8 -8 -8 -8 -8 -7 -7 -8
-14 -13 -13 -13 -13 -14 -13 -14 -14 -13 -12 -12 -12 -12 -12 -12 -12 -11 -10 -10 -10 -10 -9 -9 -9 -8 -8 -7 -7 -8 -8 -8 -8 -8 -8 -8 -8 -9 -8 -8 -8 -8 -8
-15 -15 -15 -15 -14 -14 -14 -15 -14 -15 -14 -14 -14 -14 -13 -13 -12 -11 -12 -11 -10 -10 -10 -10 -10 -9 -9 -9 -8 -8 -9 -8 -8 -9 -8 -8 -8 -9 -8 -8 -8 -8 -8
-16 -16 -16 -16 -15 -15 -15 -15 -15 -14 -14 -14 -14 -14 -14 -14 -13 -12 -12 -11 -11 -11 -10 -10 -10 -9 -10 -10 -10 -10 -9 -9 -9 -9 -9 -9 -9 -9 -9 -9 -9 -9 -9
-17 -17 -17 -16 -16 -16 -16 -16 -15 -15 -15 -14 -14 -14 -13 -13 -13 -13 -13 -12 -12 -12 -12 -11 -11 -10 -10 -10 -10 -10 -10 -9 -10 -9 -9 -9 -9 -10 -9 -9 -9 -9 -9
-18 -17 -17 -17 -17 -17 -16 -16 -16 -15 -15 -15 -15 -14 -14 -14 -14 -13 -13 -13 -13 -12 -12 -12 -11 -11 -11 -10 -10 -10 -10 -10 -10 -9 -9 -9 -10 -10 -10 -10 -10 -9 -9
Height
5929 5932 5934 5936 5938 5939 5942 5944 5946 5949 5952 5954 5956 5957 5958 5959 5961 5962 5964 5966 5967 5968 5969 5969 5969 5969 5968 5967 5967 5966 5965 5963 5962 5960 5955 5950 5947 5942 5937 5933 5928 5923 5918
5923 5927 5930 5932 5934 5936 5938 5940 5942 5944 5946 5950 5952 5953 5955 5956 5957 5958 5960 5961 5962 5963 5964 5964 5965 5965 5964 5963 5962 5961 5959 5957 5956 5955 5951 5947 5943 5940 5935 5930 5924 5919 5913
5918 5921 5925 5928 5930 5932 5934 5936 5939 5941 5942 5944 5947 5948 5949 5950 5952 5953 5954 5955 5956 5957 5958 5959 5958 5959 5959 5958 5957 5955 5953 5952 5950 5948 5947 5942 5939 5935 5932 5926 5920 5914 5910
5915 5917 5920 5923 5925 5926 5928 5930 5933 5936 5937 5939 5941 5942 5944 5946 5948 5949 5950 5951 5952 5952 5953 5953 5953 5953 5953 5952 5952 5950 5948 5946 5944 5942 5941 5938 5934 5930 5926 5921 5916 5909 5903
5911 5913 5915 5916 5919 5922 5925 5927 5928 5931 5934 5935 5936 5938 5940 5941 5943 5945 5946 5947 5947 5948 5948 5949 5949 5949 5948 5948 5946 5944 5942 5941 5939 5936 5934 5932 5928 5924 5919 5915 5909 5904 5898
5906 5908 5910 5912 5914 5916 5918 5920 5922 5925 5927 5929 5931 5933 5935 5937 5938 5939 5939 5940 5942 5942 5943 5943 5943 5943 5944 5942 5941 5938 5936 5935 5935 5930 5928 5925 5922 5917 5913 5908 5903 5897 5892
5900 5901 5904 5906 5909 5910 5912 5913 5916 5918 5918 5921 5923 5926 5929 5931 5932 5933 5933 5933 5934 5935 5936 5937 5937 5936 5936 5936 5935 5931 5929 5927 5924 5922 5920 5919 5914 5909 5905 5901 5896 5890 5885
5894 5896 5899 5900 5900 5904 5907 5909 5910 5912 5913 5914 5915 5918 5921 5923 5923 5924 5925 5925 5925 5928 5929 5930 5929 5930 5928 5927 5924 5921 5922 5921 5920 5915 5913 5912 5906 5902 5897 5894 5890 5884 5878
5884 5887 5888 5889 5891 5894 5898 5900 5901 5902 5902 5907 5907 5909 5913 5914 5915 5915 5914 5915 5917 5919 5920 5921 5920 5920 5920 5918 5913 5912 5913 5913 5911 5908 5906 5903 5899 5895 5890 5887 5882 5877 5871
5873 5872 5861 5860 5880 5882 5886 5889 5891 5894 5894 5899 5901 5904 5905 5907 5906 5906 5906 5907 5909 5911 5910 5911 5911 5911 5910 5906 5904 5903 5905 5905 5902 5901 5899 5896 5893 5889 5884 5878 5875 5868 5861
5862 5864 5860 5864 5863 5871 5876 5879 5882 5885 5886 5890 5894 5896 5897 5897 5899 5899 5899 5900 5901 5902 5902 5903 5902 5901 5900 5899 5897 5898 5897 5895 5895 5893 5891 5889 5885 5882 5879 5876 5869 5860 5851
5851 5857 5858 5858 5843 5848 5864 5865 5872 5874 5880 5884 5885 5887 5889 5889 5890 5891 5891 5891 5892 5894 5895 5894 5892 5890 5892 5891 5891 5891 5889 5889 5888 5886 5884 5882 5880 5876 5872 5867 5861 5853 5843
5844 5846 5850 5851 5853 5852 5856 5860 5863 5867 5869 5874 5875 5877 5878 5880 5883 5883 5883 5884 5884 5885 5886 5885 5885 5884 5885 5885 5884 5884 5882 5881 5880 5878 5877 5875 5874 5870 5866 5861 5853 5843 5833
5833 5836 5838 5841 5841 5844 5849 5850 5854 5859 5862 5865 5867 5868 5870 5871 5872 5874 5874 5875 5873 5875 5877 5878 5877 5874 5874 5876 5876 5876 5875 5874 5874 5873 5871 5869 5865 5862 5859 5853 5844 5836 5825
5821 5823 5826 5830 5831 5835 5840 5842 5844 5848 5851 5854 5854 5857 5861 5862 5863 5864 5866 5865 5865 5867 5869 5870 5869 5866 5866 5867 5869 5870 5869 5867 5867 5865 5863 5862 5859 5854 5850 5845 5838 5831 5822
5808 5811 5814 5818 5821 5824 5829 5830 5832 5835 5838 5842 5844 5845 5848 5850 5852 5853 5854 5855 5854 5856 5858 5860 5860 5859 5860 5859 5860 5861 5860 5860 5858 5856 5855 5852 5850 5846 5843 5838 5832 5825 5819
5795 5799 5802 5804 5807 5809 5812 5816 5819 5821 5824 5827 5831 5832 5834 5837 5839 5840 5842 5842 5844 5846 5846 5847 5849 5849 5849 5849 5850 5850 5850 5849 5848 5847 5846 5844 5842 5839 5835 5830 5825 5820 5813
5779 5782 5785 5787 5790 5793 5795 5799 5804 5806 5808 5812 5816 5819 5822 5824 5825 5827 5830 5831 5833 5833 5834 5836 5837 5838 5839 5839 5838 5839 5840 5839 5836 5835 5834 5834 5832 5830 5827 5822 5818 5814 5809
5763 5765 5767 5770 5772 5775 5777 5779 5784 5790 5793 5795 5799 5802 5806 5810 5813 5815 5816 5817 5818 5819 5821 5823 5824 5826 5827 5826 5827 5827 5827 5825 5823 5823 5824 5823 5822 5820 5818 5815 5811 5807 5804
5747 5750 5752 5755 5756 5757 5761 5764 5766 5769 5775 5777 5782 5786 5789 5792 5796 5799 5802 5803 5804 5805 5806 5807 5809 5811 5812 5813 5812 5813 5814 5813 5811 5812 5812 5811 5811 5809 5808 5806 5803 5800 5797
5729 5732 5734 5737 5739 5740 5740 5744 5747 5751 5755 5759 5762 5766 5771 5774 5775 5779 5783 5785 5788 5789 5790 5791 5791 5794 5796 5796 5797 5797 5799 5800 5800 5799 5799 5799 5799 5797 5796 5795 5794 5791 5789
5711 5713 5716 5718 5722 5724 5727 5730 5731 5734 5738 5740 5743 5747 5752 5755 5757 5760 5763 5767 5770 5772 5774 5775 5776 5776 5778 5781 5781 5781 5782 5783 5785 5786 5787 5786 5785 5785 5784 5784 5782 5781 5779
5694 5696 5698 5700 5704 5707 5710 5714 5717 5720 5722 5724 5726 5729 5731 5735 5740 5743 5746 5749 5750 5754 5756 5759 5760 5760 5761 5762 5764 5766 5767 5769 5769 5770 5772 5773 5773 5772 5773 5772 5771 5771 5769
5678 5681 5682 5685 5687 5690 5692 5695 5698 5702 5706 5708 5711 5713 5715 5717 5719 5723 5726 5729 5732 5735 5737 5740 5743 5745 5746 5746 5749 5750 5751 5753 5755 5756 5756 5757 5758 5759 5759 5760 5760 5759 5759
5659 5663 5665 5667 5669 5672 5674 5676 5677 5681 5684 5687 5690 5694 5696 5698 5699 5702 5706 5709 5712 5715 5718 5720 5723 5725 5728 5729 5731 5733 5737 5739 5738 5739 5740 5741 5743 5744 5745 5746 5747 5747 5747
5638 5641 5644 5647 5650 5652 5655 5657 5659 5661 5664 5666 5669 5672 5675 5678 5680 5682 5685 5688 5691 5693 5696 5699 5702 5705 5706 5710 5712 5714 5717 5720 5722 5724 5725 5726 5728 5729 5730 5731 5732 5734 5735
Wind_Speed
25 29 31 31 32 29 30 30 30 29 28 27 25 23 23 23 22 22 21 21 20 22 22 23 24 26 27 28 28 30 31 33 33 34 35 35 33 33 32 31 30 32 35
26 27 28 32 33 31 31 32 32 31 30 30 30 28 26 25 26 26 26 26 26 26 25 26 28 29 31 31 33 33 33 34 33 30 32 30 29 27 28 30 33 35 38
28 28 28 28 30 31 31 34 34 33 32 33 32 32 31 29 29 30 30 31 30 29 30 30 31 31 33 35 36 36 34 33 32 30 26 27 25 26 25 28 31 34 35
25 28 29 29 31 32 33 34 36 36 35 35 35 34 33 31 28 29 31 32 32 32 32 32 33 33 33 33 32 32 32 31 30 28 25 25 28 30 28 28 29 34 35
17 19 25 29 31 31 33 34 36 36 37 37 38 37 35 33 30 29 28 28 29 30 31 31 31 31 31 30 31 31 31 28 27 29 28 28 29 30 33 33 35 34 34
27 23 23 23 24 27 29 33 34 36 38 40 40 39 38 36 35 33 32 32 32 31 30 29 30 31 31 31 31 32 32 32 30 33 30 29 28 30 32 33 34 35 35
30 28 30 28 30 30 30 30 29 34 38 37 37 38 36 35 36 36 36 36 36 36 35 33 33 33 34 34 34 36 36 36 35 34 32 29 31 31 34 35 36 38 39
40 40 35 36 35 32 34 34 30 30 29 40 39 36 34 32 33 33 34 36 36 35 34 34 34 34 34 35 36 37 35 35 33 35 33 29 31 34 38 38 38 40 41
44 46 45 42 36 33 32 31 28 32 35 32 38 37 35 33 33 33 35 36 36 34 33 34 33 32 31 33 38 38 35 30 29 31 30 30 34 36 38 39 39 39 41
42 48 49 43 38 35 34 30 18 22 23 33 21 25 29 32 36 36 38 38 37 35 35 35 35 34 32 34 36 35 30 26 27 26 29 32 33 35 37 37 37 45 49
48 46 46 35 37 37 33 30 29 27 22 30 35 35 31 31 32 34 34 35 33 33 33 33 33 34 35 36 36 30 26 27 27 28 31 33 35 35 34 36 42 51 56
49 48 46 42 40 25 34 33 31 26 28 28 30 29 29 30 31 33 32 30 31 30 32 34 35 36 35 33 30 28 28 29 29 30 31 33 32 32 33 40 45 52 54
46 42 38 41 37 32 30 33 41 33 34 35 30 30 31 35 31 28 29 29 30 30 30 32 33 36 35 32 30 28 28 26 25 23 21 22 27 31 33 42 48 51 51
50 45 43 45 42 39 33 34 28 28 32 35 36 33 32 34 34 34 37 34 32 30 29 29 32 26 34 29 26 26 24 23 22 22 26 28 31 31 41 46 48 49 51
51 48 45 42 50 50 45 42 35 33 37 37 35 36 36 37 35 35 36 37 34 30 29 29 30 33 29 34 27 27 27 26 26 30 32 33 32 39 43 47 42 44 50
50 55 54 53 54 49 48 43 39 38 44 46 44 43 45 42 37 39 41 39 36 33 30 29 35 35 30 18 29 31 32 30 31 34 35 34 35 41 43 45 43 44 45
59 56 58 58 60 61 57 54 51 47 46 47 47 46 44 43 40 40 43 44 40 36 32 31 32 35 35 34 33 34 36 36 36 37 38 39 40 42 42 44 46 43 45
59 61 62 64 63 75 71 64 67 59 55 55 54 53 52 50 46 44 48 47 45 41 39 38 39 39 38 38 39 40 39 43 42 42 43 44 42 40 42 44 47 45 42
63 63 68 57 53 50 70 74 78 73 68 63 62 60 57 54 53 54 52 53 53 51 49 48 47 45 43 42 44 44 44 46 48 46 48 51 48 41 42 44 47 47 42
63 63 64 62 69 67 57 56 56 59 68 65 67 65 65 63 60 59 62 61 63 65 63 62 62 59 50 50 48 48 47 48 52 52 53 53 51 49 45 44 44 46 45
68 65 62 58 57 54 55 60 62 62 56 60 61 58 69 71 61 64 59 61 66 70 69 67 66 58 51 49 49 53 53 50 52 55 55 53 51 50 48 45 42 44 45
58 61 65 63 58 54 50 42 44 49 51 49 52 48 48 49 46 49 58 64 65 61 57 56 53 52 50 49 50 53 56 55 53 52 53 53 51 48 47 45 41 42 43
56 53 52 47 50 54 53 43 43 41 41 48 51 50 49 50 54 53 52 52 50 51 52 51 47 44 45 43 46 47 50 55 56 54 52 53 51 49 47 46 42 42 42
58 56 55 52 50 48 47 49 46 47 50 50 47 47 51 53 54 54 53 53 56 57 56 55 57 52 45 42 42 41 39 40 43 48 49 49 48 47 46 45 43 41 41
64 62 61 59 57 56 56 55 54 53 54 55 54 56 55 56 53 55 56 58 58 58 57 57 59 58 58 54 50 47 46 46 45 44 44 45 42 41 43 45 45 43 40
64 65 68 66 65 64 63 63 62 62 62 61 62 61 64 64 64 63 61 62 62 62 62 62 61 61 60 61 59 56 55 54 49 48 50 49 47 44 43 44 44 46 44
Wind_Direction
230 228 229 226 228 220 217 219 216 218 224 224 223 224 226 222 223 225 229 233 239 246 253 260 265 271 275 279 285 293 298 302 306 309 312 316 321 324 329 331 336 339 339
228 229 228 229 232 230 224 224 225 222 224 229 229 229 230 232 230 229 229 231 236 242 249 256 262 269 275 279 283 288 293 298 304 311 313 318 321 324 326 329 331 333 335
230 230 232 232 235 235 230 229 228 229 230 231 233 235 236 236 237 238 235 234 237 240 246 252 259 267 273 278 282 290 296 302 308 313 317 319 324 320 321 323 327 326 324
232 233 232 233 235 236 233 233 233 231 231 236 236 236 239 241 242 247 246 245 246 247 250 255 260 266 272 278 287 293 298 305 311 314 319 318 318 316 321 319 318 324 327
220 223 230 233 236 239 242 242 243 242 240 239 241 241 242 244 245 249 255 257 257 258 260 263 267 271 277 285 291 296 298 304 309 309 312 314 317 320 318 321 323 325 322
233 223 232 236 235 240 243 243 242 244 247 246 247 248 248 250 251 252 254 258 263 265 266 269 272 277 281 284 289 293 296 299 303 302 306 312 313 314 313 318 320 316 318
244 238 234 239 241 242 243 246 245 247 244 246 249 250 250 252 254 256 258 260 263 265 267 269 273 276 280 284 287 287 291 295 298 303 307 311 312 313 314 315 316 315 316
242 243 239 237 248 247 256 248 263 256 263 247 243 247 247 248 250 253 257 259 259 263 267 270 271 275 278 281 281 281 283 286 294 297 302 309 309 310 310 314 316 315 315
250 248 237 239 245 249 260 263 274 244 248 256 240 236 241 242 245 249 252 256 261 263 265 268 270 270 272 273 274 279 284 293 293 292 300 303 304 305 308 313 313 315 316
259 253 261 219 245 250 252 257 254 251 238 226 238 249 247 248 249 251 254 259 264 264 263 264 266 268 267 266 269 276 286 288 285 291 295 297 300 305 313 318 319 321 318
267 272 263 256 234 238 246 249 242 242 235 237 234 244 252 253 251 253 256 259 264 265 266 269 270 268 267 268 272 279 280 277 283 286 288 295 299 309 313 318 318 320 319
257 257 264 265 256 220 242 239 235 244 237 236 236 240 248 254 255 257 262 266 269 274 277 272 267 267 267 265 271 273 275 280 287 289 290 291 302 306 313 320 322 323 319
253 254 258 261 260 271 268 264 248 243 238 237 239 240 249 248 248 252 261 269 274 278 283 277 282 272 268 264 266 268 273 281 285 296 298 301 305 307 311 314 324 326 326
250 255 257 261 264 264 255 229 237 244 250 251 249 251 248 249 257 255 255 262 267 269 281 282 285 266 256 257 258 262 269 274 282 291 298 304 306 308 314 319 325 330 331
249 251 253 255 257 251 246 240 243 249 251 254 255 257 257 257 260 259 257 257 262 270 274 286 280 283 274 246 255 259 265 271 282 288 296 301 304 306 315 322 327 329 338
249 249 248 249 252 257 256 249 242 242 247 254 257 259 264 259 259 261 259 256 260 265 268 273 283 287 290 274 251 261 266 273 275 282 288 294 301 311 314 322 327 328 327
249 251 257 246 249 253 254 254 248 245 247 248 253 256 257 256 254 255 255 256 261 265 271 278 286 289 286 289 286 273 272 272 274 281 288 294 299 305 311 317 325 329 327
249 246 249 252 256 250 245 246 251 241 239 241 245 248 252 252 252 257 257 253 256 257 264 270 282 287 286 280 281 281 279 276 279 283 287 288 290 298 305 313 318 323 321
254 259 255 259 253 263 251 247 251 247 247 241 242 245 250 249 252 257 259 256 252 258 260 265 268 279 283 277 275 277 279 278 276 278 281 284 285 293 302 306 311 315 316
257 259 262 261 259 260 253 245 250 251 247 245 245 247 252 252 254 256 263 260 256 258 264 265 269 276 280 283 280 276 277 277 277 279 281 288 293 293 298 302 303 305 309
259 260 264 262 260 269 272 268 263 267 265 258 250 253 251 252 253 255 259 257 258 259 261 269 274 278 276 276 278 277 273 273 276 280 282 284 286 289 293 295 297 298 301
267 265 265 265 263 270 272 273 260 258 260 259 258 262 257 255 250 251 254 257 256 260 268 274 270 269 270 268 268 267 268 270 271 274 278 282 285 287 289 290 291 292 294
263 263 265 261 265 266 266 264 261 258 256 255 252 250 249 251 256 259 259 257 255 256 257 259 257 259 263 265 266 269 270 269 270 271 271 274 278 283 286 287 287 286 288
255 255 254 252 252 251 248 252 256 260 264 259 254 254 251 250 251 252 251 249 253 254 251 254 258 256 255 259 265 268 269 272 274 274 273 273 272 274 277 282 284 283 284
253 254 254 254 253 250 249 249 248 250 251 250 255 257 254 252 254 254 253 252 250 248 248 251 252 255 256 259 263 268 273 273 275 276 278 278 278 273 272 273 277 279 280
251 252 253 255 256 255 254 254 254 253 252 251 251 252 251 252 252 251 251 253 253 254 254 255 258 262 263 264 266 266 268 271 268 269 272 274 276 275 271 268 269 272 275